• In Italy
  • List of Countries
  • For 7 days
  • Water Temperature
  • Satellite Maps
  • Weather Map
  • Weather Widgets
  • user-avatar
    Login

    Hourly Weather Escaldes-Engordany

    Today, 21 July, Friday

    Time Temperature Precipitation Wind Pressure Humidity
    00:00 +13°C° 0 mm 0 mps 639 mmHg 94%
    01:00 +12°C° 0 mm 0 mps 639 mmHg 94%
    02:00 +13°C° 0 mm 1 mps 639 mmHg 94%
    03:00 +13°C° 0 mm 1 mps 639 mmHg 95%
    04:00 +13°C° 0.2 mm 1 mps 639 mmHg 93%
    05:00 +14°C° 0.2 mm 1 mps 639 mmHg 92%
    06:00 +14°C° 0 mm 1 mps 639 mmHg 89%
    07:00 +15°C° 0.4 mm 1 mps 639 mmHg 83%
    08:00 +17°C° 0.4 mm 2 mps 640 mmHg 77%
    09:00 +18°C° 0.4 mm 2 mps 640 mmHg 70%
    10:00 +19°C° 0.8 mm 2 mps 640 mmHg 65%
    11:00 +20°C° 0.8 mm 2 mps 640 mmHg 60%
    12:00 +21°C° 0.8 mm 3 mps 641 mmHg 55%
    13:00 +22°C° 0.7 mm 3 mps 641 mmHg 55%
    14:00 +22°C° 0.7 mm 3 mps 640 mmHg 54%
    15:00 +22°C° 0.7 mm 3 mps 640 mmHg 54%
    16:00 +21°C° 0.3 mm 2 mps 640 mmHg 58%
    17:00 +20°C° 0.3 mm 2 mps 640 mmHg 62%
    18:00 +20°C° 0.3 mm 2 mps 640 mmHg 66%
    19:00 +19°C° 0 mm 1 mps 639 mmHg 73%
    20:00 +16°C° 0 mm 1 mps 639 mmHg 80%
    21:00 +13°C° 0 mm 0 mps 639 mmHg 87%
    22:00 +13°C° 0 mm 0 mps 639 mmHg 88%
    23:00 +14°C° 0 mm 1 mps 639 mmHg 88%

    Tomorrow, 22 July, Saturday

    Time Temperature Precipitation Wind Pressure Humidity
    00:00 +13°C° 0 mm 1 mps 639 mmHg 89%
    01:00 +13°C° 0 mm 1 mps 639 mmHg 90%
    02:00 +13°C° 0 mm 1 mps 639 mmHg 90%
    03:00 +13°C° 0 mm 1 mps 639 mmHg 91%
    04:00 +13°C° 0 mm 1 mps 639 mmHg 89%
    05:00 +14°C° 0 mm 1 mps 639 mmHg 87%
    06:00 +14°C° 0 mm 1 mps 640 mmHg 85%
    07:00 +17°C° 0 mm 2 mps 641 mmHg 74%
    08:00 +19°C° 0 mm 2 mps 641 mmHg 62%
    09:00 +21°C° 0 mm 3 mps 642 mmHg 50%
    10:00 +22°C° 0 mm 3 mps 643 mmHg 46%
    11:00 +23°C° 0 mm 4 mps 643 mmHg 42%
    12:00 +25°C° 0 mm 4 mps 643 mmHg 38%
    13:00 +25°C° 0.1 mm 4 mps 643 mmHg 39%
    14:00 +25°C° 0.1 mm 4 mps 643 mmHg 41%
    15:00 +25°C° 0.1 mm 4 mps 643 mmHg 42%
    16:00 +23°C° 0.1 mm 4 mps 642 mmHg 48%
    17:00 +22°C° 0.1 mm 3 mps 642 mmHg 53%
    18:00 +21°C° 0.1 mm 2 mps 642 mmHg 58%
    19:00 +19°C° 0.1 mm 2 mps 642 mmHg 67%
    20:00 +17°C° 0.1 mm 2 mps 642 mmHg 77%
    21:00 +15°C° 0.1 mm 1 mps 642 mmHg 87%
    22:00 +15°C° 0 mm 1 mps 642 mmHg 87%
    23:00 +14°C° 0 mm 1 mps 642 mmHg 88%

    Day after tomorrow, 23 July, Sunday

    Time Temperature Precipitation Wind Pressure Humidity
    00:00 +14°C° 0 mm 1 mps 642 mmHg 89%
    01:00 +14°C° 0 mm 1 mps 642 mmHg 90%
    02:00 +14°C° 0 mm 1 mps 642 mmHg 90%
    03:00 +13°C° 0 mm 1 mps 642 mmHg 91%
    04:00 +14°C° 0 mm 1 mps 642 mmHg 90%
    05:00 +14°C° 0 mm 1 mps 643 mmHg 88%
    06:00 +15°C° 0 mm 1 mps 643 mmHg 87%
    07:00 +16°C° 0 mm 1 mps 644 mmHg 80%
    08:00 +18°C° 0 mm 2 mps 644 mmHg 74%
    09:00 +19°C° 0 mm 2 mps 645 mmHg 67%
    10:00 +20°C° 0 mm 3 mps 645 mmHg 61%
    11:00 +22°C° 0 mm 3 mps 645 mmHg 55%
    12:00 +24°C° 0 mm 3 mps 646 mmHg 48%
    13:00 +23°C° 0 mm 4 mps 645 mmHg 48%
    14:00 +23°C° 0 mm 4 mps 645 mmHg 48%
    15:00 +23°C° 0 mm 4 mps 645 mmHg 48%
    16:00 +22°C° 0.5 mm 3 mps 644 mmHg 56%
    17:00 +20°C° 0.5 mm 2 mps 644 mmHg 65%
    18:00 +19°C° 0.5 mm 2 mps 643 mmHg 73%
    19:00 +18°C° 1.4 mm 1 mps 643 mmHg 80%
    20:00 +16°C° 1.4 mm 1 mps 643 mmHg 87%
    21:00 +14°C° 1.4 mm 1 mps 643 mmHg 94%
    22:00 +14°C° 0.3 mm 1 mps 642 mmHg 95%
    23:00 +14°C° 0.3 mm 1 mps 642 mmHg 95%

    24 July, Monday

    Time Temperature Precipitation Wind Pressure Humidity
    00:00 +13°C° 0.3 mm 1 mps 642 mmHg 96%
    01:00 +13°C° 0.1 mm 1 mps 642 mmHg 96%
    02:00 +13°C° 0.1 mm 1 mps 641 mmHg 96%
    03:00 +13°C° 0.1 mm 1 mps 641 mmHg 96%
    04:00 +13°C° 0 mm 1 mps 641 mmHg 94%
    05:00 +13°C° 0 mm 2 mps 641 mmHg 92%
    06:00 +13°C° 0 mm 2 mps 641 mmHg 91%
    07:00 +14°C° 0 mm 2 mps 641 mmHg 81%
    08:00 +16°C° 0 mm 3 mps 642 mmHg 71%
    09:00 +17°C° 0 mm 3 mps 642 mmHg 61%
    10:00 +18°C° 0 mm 3 mps 643 mmHg 56%
    11:00 +20°C° 0 mm 3 mps 643 mmHg 50%
    12:00 +21°C° 0 mm 3 mps 643 mmHg 45%
    13:00 +21°C° 0 mm 3 mps 643 mmHg 45%
    14:00 +21°C° 0 mm 4 mps 643 mmHg 46%
    15:00 +21°C° 0 mm 4 mps 643 mmHg 46%
    16:00 +19°C° 0 mm 4 mps 642 mmHg 51%
    17:00 +18°C° 0 mm 4 mps 642 mmHg 56%
    18:00 +17°C° 0 mm 4 mps 642 mmHg 61%
    19:00 +14°C° 0 mm 3 mps 641 mmHg 68%
    20:00 +12°C° 0 mm 3 mps 641 mmHg 74%
    21:00 +10°C° 0 mm 3 mps 641 mmHg 81%
    22:00 +10°C° 0 mm 3 mps 640 mmHg 80%
    23:00 +9°C° 0 mm 3 mps 640 mmHg 78%

    25 July, Tuesday

    Time Temperature Precipitation Wind Pressure Humidity
    00:00 +9°C° 0 mm 3 mps 640 mmHg 77%
    01:00 +8°C° 0 mm 3 mps 639 mmHg 76%
    02:00 +8°C° 0 mm 3 mps 639 mmHg 76%
    03:00 +8°C° 0 mm 3 mps 639 mmHg 76%
    04:00 +8°C° 0 mm 3 mps 639 mmHg 75%
    05:00 +9°C° 0 mm 3 mps 639 mmHg 74%
    06:00 +9°C° 0 mm 3 mps 640 mmHg 73%
    07:00 +11°C° 0 mm 3 mps 640 mmHg 66%
    08:00 +13°C° 0 mm 3 mps 641 mmHg 58%
    09:00 +16°C° 0 mm 3 mps 642 mmHg 50%
    10:00 +18°C° 0 mm 3 mps 642 mmHg 47%
    11:00 +19°C° 0 mm 3 mps 642 mmHg 43%
    12:00 +20°C° 0 mm 4 mps 642 mmHg 40%
    13:00 +20°C° 0 mm 4 mps 642 mmHg 40%
    14:00 +21°C° 0 mm 4 mps 642 mmHg 40%
    15:00 +21°C° 0 mm 4 mps 642 mmHg 40%
    16:00 +19°C° 0 mm 4 mps 641 mmHg 46%
    17:00 +18°C° 0 mm 4 mps 641 mmHg 52%
    18:00 +17°C° 0 mm 3 mps 641 mmHg 58%
    19:00 +14°C° 0.2 mm 3 mps 640 mmHg 67%
    20:00 +12°C° 0.2 mm 3 mps 640 mmHg 76%
    21:00 +10°C° 0.2 mm 2 mps 640 mmHg 85%
    22:00 +10°C° 0 mm 2 mps 640 mmHg 85%
    23:00 +10°C° 0 mm 2 mps 640 mmHg 86%

    26 July, Wednesday

    Time Temperature Precipitation Wind Pressure Humidity
    00:00 +9°C° 0 mm 2 mps 639 mmHg 86%
    01:00 +9°C° 0 mm 2 mps 639 mmHg 86%
    02:00 +9°C° 0 mm 2 mps 639 mmHg 87%
    03:00 +9°C° 0 mm 2 mps 639 mmHg 88%
    04:00 +9°C° 0 mm 2 mps 639 mmHg 85%
    05:00 +10°C° 0 mm 2 mps 639 mmHg 83%
    06:00 +10°C° 0 mm 2 mps 640 mmHg 80%
    07:00 +13°C° 0 mm 2 mps 641 mmHg 69%
    08:00 +16°C° 0 mm 2 mps 642 mmHg 58%
    09:00 +18°C° 0 mm 2 mps 642 mmHg 47%
    10:00 +19°C° 0 mm 2 mps 643 mmHg 44%
    11:00 +20°C° 0 mm 2 mps 643 mmHg 42%
    12:00 +23°C° 0 mm 2 mps 643 mmHg 39%
    13:00 +23°C° 0 mm 2 mps 643 mmHg 40%
    14:00 +23°C° 0 mm 2 mps 643 mmHg 41%
    15:00 +23°C° 0 mm 2 mps 642 mmHg 42%
    16:00 +21°C° 0 mm 2 mps 642 mmHg 47%
    17:00 +20°C° 0 mm 2 mps 642 mmHg 53%
    18:00 +19°C° 0 mm 2 mps 641 mmHg 58%
    19:00 +18°C° 0 mm 1 mps 641 mmHg 66%
    20:00 +15°C° 0 mm 1 mps 641 mmHg 74%
    21:00 +13°C° 0 mm 1 mps 641 mmHg 82%
    22:00 +13°C° 0 mm 1 mps 640 mmHg 83%
    23:00 +13°C° 0 mm 1 mps 640 mmHg 83%
    Show more